Location: Stuttgart
(48.8069°N, 9.1544°E)
Time: 02:50:16
(UTC+02:00)

ISS - Pass Details

Date: 12 May 2021
Orbit: 417 x 422 km, 51.6° (Epoch: 15 June)

Event Time Altitude Azimuth Distance (km) Brightness Sun altitude
Rises 04:23:36 0° 290° (WNW) 2,375 -0.2 -11.6°
Reaches altitude 10° 04:25:42 10° 290° (WNW) 1,510 -1.2 -11.3°
Maximum altitude 04:29:06 88° 17° (NNE) 428 -3.7 -10.9°
Drops below altitude 10° 04:32:29 10° 110° (ESE) 1,507 -0.6 -10.5°
Sets 04:34:35 0° 111° (ESE) 2,370 0.4 -10.3°
